TimeEET,TemperatureF,Dew PointF,Humidity,Sea Level PressureIn,VisibilityMPH,Wind Direction,Wind SpeedMPH,Gust SpeedMPH,PrecipitationIn,Events,Conditions,WindDirDegrees,DateUTC
12:20 AM,48.2,42.8,82,30.21,-9999.0,WSW,8.1,-,N/A,,Clear,250,2012-12-25 22:20:00
12:50 AM,50.0,42.8,76,30.21,-9999.0,WSW,9.2,-,N/A,,Clear,250,2012-12-25 22:50:00
1:20 AM,50.0,42.8,76,30.21,-9999.0,WSW,9.2,-,N/A,,Clear,250,2012-12-25 23:20:00
1:50 AM,50.0,42.8,76,30.21,-9999.0,WSW,9.2,-,N/A,,Clear,240,2012-12-25 23:50:00
2:00 AM,49,42,71,30.22,6,WSW,9.2,,,,,240,2012-12-26 00:00:00
2:20 AM,50.0,42.8,76,30.21,-9999.0,SW,11.5,-,N/A,,Clear,230,2012-12-26 00:20:00
2:50 AM,50.0,42.8,76,30.21,-9999.0,WSW,11.5,-,N/A,,Clear,240,2012-12-26 00:50:00
3:20 AM,48.2,42.8,82,30.18,-9999.0,WSW,10.4,-,N/A,,Clear,240,2012-12-26 01:20:00
3:50 AM,48.2,42.8,82,30.18,-9999.0,SW,9.2,-,N/A,,Clear,230,2012-12-26 01:50:00
4:20 AM,50.0,41.0,71,30.18,-9999.0,SW,10.4,-,N/A,,Clear,220,2012-12-26 02:20:00
4:50 AM,50.0,41.0,71,30.18,-9999.0,SW,11.5,-,N/A,,Clear,220,2012-12-26 02:50:00
5:20 AM,50.0,41.0,71,30.18,-9999.0,SW,12.7,-,N/A,,Clear,220,2012-12-26 03:20:00
5:50 AM,50.0,41.0,71,30.18,-9999.0,SW,13.8,-,N/A,,Clear,230,2012-12-26 03:50:00
6:20 AM,50.0,41.0,71,30.18,-9999.0,WSW,11.5,-,N/A,,Clear,240,2012-12-26 04:20:00
6:50 AM,50.0,41.0,71,30.18,-9999.0,WSW,10.4,-,N/A,,Clear,240,2012-12-26 04:50:00
7:20 AM,50.0,41.0,71,30.21,-9999.0,WSW,9.2,-,N/A,,Clear,240,2012-12-26 05:20:00
7:50 AM,50.0,42.8,76,30.18,-9999.0,WSW,10.4,-,N/A,,Clear,240,2012-12-26 05:50:00
8:00 AM,49,42,70,30.21,6,WSW,10.4,,,,,240,2012-12-26 06:00:00
8:20 AM,50.0,42.8,76,30.21,-9999.0,WSW,10.4,-,N/A,,Clear,240,2012-12-26 06:20:00
8:50 AM,51.8,42.8,71,30.21,-9999.0,WSW,9.2,-,N/A,,Clear,250,2012-12-26 06:50:00
9:20 AM,51.8,42.8,71,30.21,-9999.0,WSW,10.4,-,N/A,,Clear,240,2012-12-26 07:20:00
9:50 AM,51.8,42.8,71,30.21,-9999.0,WSW,9.2,-,N/A,,Clear,240,2012-12-26 07:50:00
10:20 AM,51.8,42.8,71,30.21,-9999.0,SW,9.2,-,N/A,,Clear,230,2012-12-26 08:20:00
10:50 AM,53.6,42.8,67,30.21,-9999.0,WSW,8.1,-,N/A,,Clear,240,2012-12-26 08:50:00
11:20 AM,53.6,42.8,67,30.21,-9999.0,WSW,9.2,-,N/A,,Clear,240,2012-12-26 09:20:00
11:50 AM,53.6,42.8,67,30.18,-9999.0,WSW,11.5,-,N/A,,Clear,240,2012-12-26 09:50:00
12:20 PM,53.6,41.0,62,30.18,-9999.0,WSW,11.5,-,N/A,,Clear,240,2012-12-26 10:20:00
12:50 PM,55.4,41.0,58,30.18,-9999.0,WSW,10.4,-,N/A,,Clear,250,2012-12-26 10:50:00
1:20 PM,55.4,41.0,58,30.15,-9999.0,WSW,10.4,-,N/A,,Clear,250,2012-12-26 11:20:00
1:50 PM,57.2,39.2,51,30.15,-9999.0,WSW,10.4,-,N/A,,Clear,250,2012-12-26 11:50:00
2:00 PM,56,40,43,30.17,6,WSW,10.4,,,,,250,2012-12-26 12:00:00
2:20 PM,55.4,41.0,58,30.15,-9999.0,WSW,8.1,-,N/A,,Clear,240,2012-12-26 12:20:00
2:50 PM,55.4,41.0,58,30.15,-9999.0,WSW,9.2,-,N/A,,Clear,250,2012-12-26 12:50:00
3:20 PM,55.4,41.0,58,30.15,-9999.0,WSW,8.1,-,N/A,,Clear,240,2012-12-26 13:20:00
3:50 PM,55.4,41.0,58,30.15,-9999.0,WSW,6.9,-,N/A,,Clear,240,2012-12-26 13:50:00
4:20 PM,53.6,41.0,62,30.15,-9999.0,West,6.9,-,N/A,,Clear,260,2012-12-26 14:20:00
4:50 PM,51.8,41.0,67,30.12,-9999.0,West,6.9,-,N/A,,Clear,260,2012-12-26 14:50:00
5:20 PM,53.6,41.0,62,30.12,-9999.0,West,8.1,-,N/A,,Clear,260,2012-12-26 15:20:00
5:50 PM,53.6,39.2,58,30.12,-9999.0,West,9.2,-,N/A,,Clear,260,2012-12-26 15:50:00
6:20 PM,53.6,41.0,62,30.12,-9999.0,West,8.1,-,N/A,,Clear,260,2012-12-26 16:20:00
6:50 PM,53.6,41.0,62,30.12,-9999.0,West,8.1,-,N/A,,Clear,260,2012-12-26 16:50:00
7:20 PM,53.6,41.0,62,30.12,-9999.0,West,6.9,-,N/A,,Clear,260,2012-12-26 17:20:00
7:50 PM,51.8,41.0,67,30.12,-9999.0,WSW,5.8,-,N/A,,Clear,240,2012-12-26 17:50:00
8:00 PM,52,42,59,30.14,6,WSW,5.8,,,,,240,2012-12-26 18:00:00
8:20 PM,55.4,41.0,58,30.12,-9999.0,SW,8.1,-,N/A,,Clear,230,2012-12-26 18:20:00
8:50 PM,55.4,42.8,63,30.12,-9999.0,SW,10.4,-,N/A,,Clear,230,2012-12-26 18:50:00
9:20 PM,53.6,42.8,67,30.12,-9999.0,SW,9.2,-,N/A,,Clear,230,2012-12-26 19:20:00
9:50 PM,53.6,41.0,62,30.12,-9999.0,SW,10.4,-,N/A,,Clear,230,2012-12-26 19:50:00
10:20 PM,51.8,42.8,71,30.12,-9999.0,WSW,10.4,-,N/A,,Clear,240,2012-12-26 20:20:00
10:50 PM,53.6,41.0,62,30.12,-9999.0,SW,10.4,-,N/A,,Clear,230,2012-12-26 20:50:00
11:20 PM,53.6,41.0,62,30.12,-9999.0,SW,11.5,-,N/A,,Clear,230,2012-12-26 21:20:00
11:50 PM,53.6,41.0,62,30.12,-9999.0,WSW,10.4,-,N/A,,Clear,240,2012-12-26 21:50:00